Location: Aldenham
(51.6667°N, 0.3500°W)
Time: 01:00:27
(UTC+00:00)

Altair - Pass Details

Date: 16 February 2026
Orbit: 1502 x 1682 km, 47.2° (Epoch: 9 March)

Event Time Altitude Azimuth Distance (km) Brightness Sun altitude
Rises 07:53:48 0° 262° (W) 4,665 9.5 4.9°
Reaches altitude 10° 07:56:48 10° 260° (W) 3,700 9.1 5.3°
Maximum altitude 08:06:04 69° 180° (S) 1,661 8.0 6.6°
Drops below altitude 10° 08:15:42 10° 100° (E) 3,837 11.2 7.9°
Sets 08:18:52 0° 99° (E) 4,846 11.5 8.3°
